GW1292 Weather Reports


Display with metric or nautical units.
time (UTC)temp
F
wind
direction
speed
MPH
gust
MPH
rain 1hr
in
rain 24hr
in
rain mn
in
humidity
%
barometer
mb
20260905234205 72 5 3.0 7.0 0.00 0.66 0.00 85 995.2
20260905233703 72 356 3.0 7.0 0.00 0.66 0.00 84 995.2
20260905233203 73 32 2.0 6.0 0.00 0.66 0.00 83 995.1
20260905231704 73 351 3.0 6.0 0.00 0.66 0.00 83 995.2
20260905231204 73 31 3.0 6.0 0.00 0.66 0.00 83 995.1
20260905230704 73 352 3.0 6.0 0.00 0.66 0.00 82 995.1
20260905230204 74 4 3.0 8.0 0.00 0.66 0.00 81 995.1
20260905224204 74 7 3.0 7.0 0.00 0.66 0.00 77 994.9
20260905223203 74 30 3.0 6.0 0.00 0.66 0.00 77 994.9
20260905221703 74 346 4.0 7.0 0.00 0.66 0.00 76 995.0
20260905221203 74 3 3.0 9.0 0.00 0.66 0.00 76 995.0
20260905220203 74 19 3.0 9.0 0.00 0.66 0.00 76 995.0
20260905214704 74 10 3.0 7.0 0.00 0.66 0.00 76 994.9
20260905213704 74 11 2.0 8.0 0.00 0.66 0.00 78 994.9
20260905213204 74 62 3.0 8.0 0.00 0.66 0.00 78 994.9
20260905211703 75 29 2.0 7.0 0.00 0.66 0.00 77 994.9
20260905210703 74 68 2.0 9.0 0.00 0.66 0.00 78 994.8
20260905210203 74 6 3.0 9.0 0.00 0.66 0.00 78 994.8
20260905204704 75 51 2.0 6.0 0.00 0.66 0.00 77 994.8
20260905204204 75 33 3.0 7.0 0.00 0.66 0.00 77 994.7
20260905203703 75 66 3.0 7.0 0.00 0.66 0.00 77 994.8
20260905203204 75 50 3.0 6.0 0.00 0.66 0.00 76 994.6
20260905201204 74 72 3.0 6.0 0.00 0.66 0.00 78 995.0
20260905200704 74 57 2.0 8.0 0.00 0.66 0.00 77 995.0
20260905200203 74 23 3.0 8.0 0.00 0.66 0.00 78 995.0
20260905194705 74 358 3.0 7.0 0.00 0.66 0.00 80 994.8
20260905194204 74 346 2.0 7.0 0.00 0.66 0.00 81 994.9
20260905193703 73 23 2.0 7.0 0.00 0.66 0.00 82 994.9
20260905193204 73 351 3.0 7.0 0.00 0.66 0.00 82 994.8
20260905191703 72 57 2.0 8.0 0.00 0.66 0.00 85 995.0
20260905191204 72 74 3.0 8.0 0.00 0.66 0.00 85 995.0
20260905190704 72 67 3.0 7.0 0.00 0.66 0.00 84 995.0
20260905190205 73 51 3.0 6.0 0.00 0.66 0.00 84 995.1
20260905184704 72 10 2.0 9.0 0.00 0.66 0.00 86 995.2
20260905183704 72 61 3.0 8.0 0.00 0.66 0.00 86 995.1
20260905183204 72 1 3.0 8.0 0.00 0.66 0.00 86 995.1
20260905181705 71 29 2.0 7.0 0.00 0.66 0.00 88 995.1
20260905181204 71 81 3.0 7.0 0.00 0.66 0.00 87 995.0
20260905180704 72 82 2.0 7.0 0.00 0.66 0.00 86 995.0
20260905174705 71 61 3.0 8.0 0.00 0.66 0.00 88 995.1
20260905174204 72 67 3.0 8.0 0.00 0.66 0.00 88 995.1
20260905173704 72 32 2.0 5.0 0.00 0.66 0.00 88 995.1
20260905173203 71 55 2.0 6.0 0.00 0.66 0.00 89 995.0
20260905170205 71 29 2.0 6.0 0.00 0.66 0.00 89 995.3
20260905164203 71 40 2.0 6.0 0.00 0.66 0.00 91 995.2
20260905163703 71 59 3.0 5.0 0.00 0.66 0.00 90 995.2
20260905163205 71 60 2.0 7.0 0.00 0.66 0.00 90 995.1
20260905161704 71 48 2.0 5.0 0.00 0.66 0.00 90 995.1
20260905161203 71 33 2.0 5.0 0.00 0.66 0.00 90 995.0
20260905160705 71 53 2.0 5.0 0.00 0.66 0.00 90 995.0
20260905160204 72 45 2.0 7.0 0.00 0.66 0.00 89 994.9
20260905154704 72 59 2.0 6.0 0.00 0.66 0.00 89 994.8
20260905154204 71 82 3.0 6.0 0.00 0.66 0.00 91 994.9
20260905153703 71 351 2.0 5.0 0.00 0.66 0.00 92 994.9
20260905153204 71 61 2.0 7.0 0.00 0.66 0.00 92 994.8
20260905151704 71 52 2.0 5.0 0.00 0.66 0.00 92 994.5
20260905151204 70 34 3.0 5.0 0.00 0.66 0.00 92 994.4
20260905150704 70 68 2.0 5.0 0.00 0.66 0.00 92 994.4
20260905150204 70 54 3.0 5.0 0.00 0.66 0.00 92 994.3
20260905144204 70 65 2.0 6.0 0.00 0.66 0.00 93 994.1
20260905143703 70 66 2.0 6.0 0.00 0.66 0.00 93 994.1
20260905143205 70 77 2.0 5.0 0.00 0.66 0.00 94 994.1
20260905141705 69 65 3.0 3.0 0.00 0.66 0.00 95 994.2
20260905140704 69 68 2.0 3.0 0.00 0.66 0.00 95 994.4
20260905140203 69 49 1.0 6.0 0.00 0.66 0.00 95 994.5
20260905134703 69 68 2.0 6.0 0.00 0.66 0.00 95 994.1
20260905133704 69 58 2.0 3.0 0.00 0.66 0.00 95 994.1
20260905133204 69 52 2.0 3.0 0.00 0.66 0.00 95 994.0
20260905131204 69 46 2.0 8.0 0.00 0.66 0.00 96 993.7
20260905130704 69 20 2.0 8.0 0.00 0.66 0.00 96 993.6
20260905130205 69 78 2.0 6.0 0.00 0.66 0.00 96 993.5
20260905124704 70 27 2.0 6.0 0.00 0.82 0.00 96 993.3
20260905124204 70 34 2.0 6.0 0.00 0.82 0.00 96 993.3
20260905123204 70 22 2.0 6.0 0.00 0.82 0.00 96 993.1
20260905121704 70 18 2.0 6.0 0.00 0.82 0.00 96 992.9
20260905121204 70 13 3.0 7.0 0.00 0.82 0.00 96 992.9
20260905120704 70 22 3.0 7.0 0.00 0.82 0.00 96 992.9
20260905114704 70 358 1.0 5.0 0.00 0.82 0.00 96 992.5
20260905114204 70 33 2.0 5.0 0.00 0.87 0.00 96 992.5
20260905113704 70 353 2.0 6.0 0.00 0.87 0.00 96 992.5
20260905113204 70 27 2.0 6.0 0.00 0.87 0.00 96 992.5
20260905111704 70 3 2.0 6.0 0.00 0.87 0.00 96 992.4
20260905111203 70 45 2.0 6.0 0.00 0.87 0.00 96 992.4
20260905110703 70 10 2.0 6.0 0.00 0.87 0.00 96 992.5
20260905110203 70 43 1.0 5.0 0.00 0.87 0.00 96 992.4
20260905104703 70 333 2.0 6.0 0.00 0.88 0.00 96 992.4
20260905104203 70 0 2.0 6.0 0.00 0.88 0.00 96 992.4
20260905103203 70 7 3.0 6.0 0.00 0.89 0.00 96 992.3
20260905101704 70 352 4.0 7.0 0.00 1.02 0.00 96 992.5
20260905101204 70 3 4.0 8.0 0.00 1.02 0.00 96 992.5
20260905100204 70 346 3.0 6.0 0.00 1.04 0.00 96 992.4
20260905094703 70 13 4.0 7.0 0.00 1.08 0.00 95 992.3
20260905094204 70 346 3.0 7.0 0.00 1.11 0.00 95 992.2
20260905093704 70 16 3.0 7.0 0.00 1.14 0.00 95 992.2
20260905093204 70 31 2.0 8.0 0.00 1.14 0.00 95 992.2
20260905091704 70 7 2.0 7.0 0.00 1.17 0.00 96 992.1
20260905091203 70 18 2.0 6.0 0.00 1.17 0.00 95 992.0
20260905090703 70 0 2.0 7.0 0.00 1.17 0.00 95 992.0
20260905090203 71 3 3.0 7.0 0.00 1.17 0.00 95 992.0
20260905084705 71 37 2.0 7.0 0.00 1.20 0.00 95 992.0
20260905084206 71 27 2.0 7.0 0.00 1.21 0.00 95 992.0
20260905083705 71 5 2.0 5.0 0.00 1.21 0.00 95 992.0
20260905083204 71 16 2.0 5.0 0.00 1.22 0.00 95 991.9
20260905081705 71 356 3.0 5.0 0.00 1.24 0.00 95 991.9
20260905081205 71 18 2.0 3.0 0.00 1.24 0.00 95 991.9
20260905080704 71 3 2.0 5.0 0.00 1.24 0.00 95 991.8
20260905080205 71 12 2.0 5.0 0.00 1.25 0.00 95 991.8
20260905074204 71 346 3.0 5.0 0.00 1.34 0.00 94 992.0
20260905073705 71 15 3.0 6.0 0.00 1.35 0.00 94 992.0
20260905073203 71 5 2.0 6.0 0.00 1.35 0.00 94 992.0
20260905071705 71 10 2.0 5.0 0.00 1.35 0.00 94 992.0
20260905071204 71 28 1.0 6.0 0.00 1.35 0.00 95 992.0
20260905070704 71 1 1.0 6.0 0.00 1.35 0.00 95 992.1
20260905070204 71 43 1.0 5.0 0.00 1.35 0.00 95 992.1
20260905064704 71 12 2.0 3.0 0.00 1.36 0.00 95 992.1
20260905063703 71 346 1.0 3.0 0.00 1.36 0.00 95 992.1
20260905063203 71 354 2.0 3.0 0.00 1.36 0.00 95 992.1
20260905061703 71 5 1.0 3.0 0.00 1.37 0.00 94 991.9
20260905061203 71 350 2.0 3.0 0.00 1.37 0.00 94 992.0
20260905060204 71 351 2.0 3.0 0.00 1.37 0.00 94 992.1
20260905054203 71 12 0.0 2.0 0.66 1.38 0.00 94 992.0
20260905053703 71 21 1.0 2.0 0.66 1.38 0.00 94 992.0
20260905053203 71 2 1.0 2.0 0.66 1.38 0.00 94 992.0
20260905051704 71 27 0.0 1.0 0.66 1.39 0.00 93 992.0
20260905051204 71 27 0.0 2.0 0.66 1.39 0.00 93 991.9
20260905050704 71 42 1.0 2.0 0.66 1.39 0.00 93 991.8
20260905044205 71 39 2.0 3.0 0.00 0.72 0.66 94 991.9
20260905043704 72 329 1.0 2.0 0.00 0.72 0.66 94 991.9
20260905041703 72 66 1.0 3.0 0.00 0.72 0.66 94 991.9
20260905041205 72 50 2.0 3.0 0.00 0.72 0.66 94 992.0
20260905040703 72 58 1.0 3.0 0.00 0.72 0.66 94 992.1
20260905040203 72 55 1.0 3.0 0.00 0.73 0.66 94 992.1
20260905034703 72 52 1.0 3.0 0.00 0.74 0.66 95 992.2
20260905034204 72 53 2.0 3.0 0.00 0.74 0.66 95 992.3
20260905033703 72 49 1.0 3.0 0.00 0.75 0.66 95 992.3
20260905033204 72 58 1.0 3.0 0.00 0.78 0.66 95 992.2
20260905031704 72 71 2.0 3.0 0.00 0.82 0.66 95 992.3
20260905031204 72 50 2.0 3.0 0.00 0.82 0.66 95 992.2
20260905030703 72 50 1.0 3.0 0.00 0.82 0.66 95 992.2
20260905030204 72 27 2.0 3.0 0.00 0.82 0.66 95 992.3
20260905024704 72 39 0.0 1.0 0.00 0.82 0.66 95 992.1
20260905024204 72 43 0.0 2.0 0.00 0.82 0.66 95 992.2
20260905023704 72 43 0.0 3.0 0.00 0.82 0.66 95 992.2
20260905023203 72 51 0.0 3.0 0.00 0.82 0.66 95 992.1
20260905021704 72 51 0.0 2.0 0.00 0.82 0.66 94 992.0
20260905020703 72 71 2.0 2.0 0.00 0.82 0.66 94 991.9
20260905020204 72 56 1.0 1.0 0.00 0.82 0.66 94 992.0
20260905014703 72 16 0.0 0.0 0.00 0.82 0.66 94 991.8
20260905013204 72 16 0.0 1.0 0.00 0.82 0.66 94 992.0
20260905011704 72 324 0.0 0.0 0.00 0.82 0.66 94 991.7
20260905010704 72 324 0.0 0.0 0.00 0.82 0.66 94 991.7
20260905010204 72 324 0.0 0.0 0.00 0.82 0.66 94 991.7
20260905004704 72 324 1.0 1.0 0.00 0.82 0.66 94 991.8
20260905004204 72 67 1.0 1.0 0.00 0.82 0.66 94 991.7
20260905003705 72 63 1.0 2.0 0.00 0.82 0.66 94 991.6
20260905001703 73 57 0.0 2.0 0.00 0.82 0.66 94 991.8
20260905001203 73 54 0.0 2.0 0.00 0.82 0.66 94 991.7
20260905000204 73 103 0.0 2.0 0.00 0.82 0.66 94 991.7
20260904234705 73 76 1.0 2.0 0.00 0.82 0.66 93 991.5